[[{"header":{"parameterUnit":"m.s-1","parameterCategory":2,"la1":30.2991,"la2":30.254,"lo1":-89.0895,"lo2":-89.0444,"dy":0.0017,"dx":0.0017,"nx":28,"ny":28,"refTime":"2025-01-16T09:00:00:Z","depth":"0","parameterNumber":2,"parameterNumberName":"U-component_of_CURRENTS"},"data":[0,0,0,0,0,0,0,0,0,0,0,0,0,0,0,0,0,0,0,0,0,0,0,0,0,0,0,0,0,0,0,0,0,0,0,0,0,0,0,0,0,0,0,0,0,0,0,0,0,0,0,0,0,0,0,0,0,0,0.3283,0.3283,0,0.3314,0.3314,0.3314,0.3319,0.3319,0.3319,0.3319,0.3268,0.3266,0.3265,0,0,0,0,0,0,0,0,0,0,0,0,0,0.3222,0.3222,0.3283,0.3283,0.3284,0.3314,0.3314,0.3314,0.3319,0.3319,0.3319,0.3319,0.3268,0.3266,0.3265,0,0,0,0,0,0,0,0,0,0,0,0,0,0.3248,0.3223,0.3283,0.3292,0.3293,0.3314,0.3314,0.3314,0.3319,0.3319,0.3319,0.3319,0.3269,0.3267,0.3265,0.3254,0,0,0.3259,0.3258,0,0,0,0,0,0,0,0,0.3246,0.3249,0.329,0.3291,0.3293,0.3315,0.3274,0.3291,0.3319,0.3307,0.3319,0.3319,0.3277,0.3275,0.3278,0.3251,0.3249,0.3258,0.3257,0.3256,0.3256,0,0,0,0,0,0,0,0.3244,0.3248,0.3293,0.3291,0.3293,0.3293,0.3296,0.3277,0.3288,0.3308,0.3309,0.3316,0.3277,0.328,0.3277,0.3248,0.3258,0.3257,0.3255,0.3255,0.3229,0.3229,0,0,0,0,0,0,0.3246,0.3247,0.3292,0.3294,0.3272,0.3294,0.3298,0.3306,0.3291,0.329,0.3316,0.3317,0.3284,0.3279,0.3275,0.3286,0.3256,0.3254,0.3253,0.3228,0.3229,0.3229,0,0,0,0,0,0,0.3245,0.325,0.329,0.3273,0.3278,0.3296,0.3304,0.3307,0.3316,0.3299,0.3295,0.3324,0.3283,0.3278,0.326,0.3283,0.3254,0.3252,0.3228,0.3228,0.3229,0.3292,0,0,0,0,0,0,0.3243,0.3249,0.325,0.3273,0.3279,0.3304,0.3305,0.3307,0.3321,0.3322,0.3304,0.3299,0.3283,0.3263,0.3258,0.328,0.325,0.3227,0.3228,0.3229,0.3289,0.3294,0.3299,0,0,0,0,0,0.324,0.3246,0.325,0.3256,0.3282,0.3305,0.3308,0.3318,0.3322,0.3325,0.3312,0.33,0.3266,0.3261,0.3255,0.3277,0.3226,0.3228,0.3229,0.3287,0.3293,0.3299,0,0,0,0,0,0,0.3231,0.3248,0.3253,0.3266,0.3284,0.3306,0.3314,0.3322,0.3318,0.3316,0.3298,0.3292,0.3286,0.3269,0.3264,0.3272,0.3247,0.3247,0.3293,0.3299,0.3305,0.3346,0.3249,0,0,0,0,0,0.3227,0.3232,0.3254,0.3268,0.3277,0.3296,0.3306,0.3314,0.3318,0.3317,0.33,0.3287,0.3286,0.3282,0.3264,0.3265,0.3297,0.3277,0.3282,0.3286,0.3316,0.3378,0.3393,0.3233,0.3233,0.3233,0,0,0.3224,0.3241,0.3239,0.3265,0.3281,0.3301,0.3301,0.3321,0.334,0.3309,0.3313,0.3296,0.3287,0.329,0.3287,0.3279,0.335,0.3288,0.3292,0.3319,0.3381,0.3397,0.3412,0.3234,0.3234,0.3234,0,0,0.3234,0.324,0.3248,0.3266,0.3293,0.3305,0.3313,0.3328,0.3336,0.334,0.3328,0.3333,0.3311,0.3322,0.3327,0.335,0.3369,0.3336,0.3403,0.3463,0.3478,0.3491,0.3563,0.3582,0.3345,0.3346,0.3346,0,0.3224,0.3251,0.3255,0.3281,0.3302,0.3311,0.3336,0.3348,0.3351,0.3371,0.3346,0.3364,0.334,0.3389,0.3395,0.3367,0.3407,0.3382,0.3474,0.3488,0.35,0.357,0.3591,0.3349,0.3348,0.3348,0.3348,0,0.3248,0.327,0.3283,0.3313,0.3334,0.3356,0.3379,0.3394,0.3401,0.3417,0.3451,0.3432,0.3457,0.3444,0.3427,0.3505,0.3506,0.347,0.3466,0.3521,0.359,0.3611,0.3353,0.3352,0.3351,0.335,0,0,0.3214,0.328,0.3282,0.3315,0.3354,0.3376,0.3418,0.3464,0.3512,0.3508,0.3574,0.357,0.3574,0.358,0.3562,0.361,0.372,0.3584,0.3586,0.3671,0.3877,0.3785,0.3798,0.3702,0.3706,0.3709,0.3894,0,0.3228,0.3283,0.331,0.3364,0.34,0.3433,0.3475,0.352,0.3555,0.3609,0.363,0.3667,0.3623,0.3643,0.3687,0.3707,0.3776,0.3675,0.3798,0.3803,0.3727,0.3819,0.3697,0.3843,0.3913,0.3917,0.3919,0,0.3237,0.328,0.3332,0.3416,0.3433,0.3463,0.3554,0.359,0.3675,0.371,0.3773,0.3785,0.3861,0.3802,0.3921,0.3861,0.3888,0.3903,0.3909,0.3821,0.3748,0.3796,0.3877,0.3796,0.395,0.3948,0.3946,0,0.3222,0.3295,0.3339,0.3363,0.3449,0.3489,0.3533,0.362,0.3666,0.3782,0.3835,0.3925,0.397,0.403,0.4056,0.4007,0.4184,0.4114,0.4073,0.4067,0.3988,0.3968,0.4018,0.4224,0.4224,0.4223,0.4223,0,0.3226,0.3266,0.3337,0.3363,0.3415,0.3488,0.3557,0.3624,0.373,0.3782,0.3878,0.3942,0.4028,0.4118,0.4134,0.4179,0.4258,0.4126,0.4119,0.4002,0.3983,0.3923,0.3872,0.423,0.4229,0.4227,0.4226,0,0.3199,0.3248,0.3298,0.3383,0.3407,0.3439,0.3537,0.3596,0.3713,0.3794,0.3835,0.3991,0.4102,0.4189,0.4302,0.4269,0.4213,0.4319,0.4182,0.4153,0.3971,0.3927,0.3843,0.3721,0.4307,0.4306,0.4305,0,0.3189,0.3215,0.3276,0.3295,0.3329,0.3391,0.3434,0.3556,0.3622,0.3795,0.3831,0.3994,0.4084,0.4253,0.4254,0.4327,0.419,0.4225,0.4085,0.3982,0.3931,0.3765,0.3656,0.4027,0.4024,0.4021,0.4019,0,0.3164,0.3177,0.3212,0.3246,0.3282,0.3316,0.3396,0.3443,0.3579,0.3669,0.3794,0.3897,0.4061,0.4083,0.4182,0.4189,0.402,0.4169,0.4113,0.3767,0.3546,0.3417,0.3898,0.3997,0.3999,0.4001,0.4002,0.4003,0.3132,0.3132,0.317,0.3187,0.3219,0.3237,0.3233,0.3333,0.3406,0.3491,0.3652,0.3727,0.3878,0.3993,0.3987,0.3903,0.3845,0.379,0.3771,0.3633,0.3419,0.3846,0.388,0.3882,0.3883,0.3884,0.3885,0,0.3088,0.3101,0.3118,0.3121,0.3099,0.315,0.3195,0.3171,0.3195,0.331,0.3387,0.3487,0.3568,0.3663,0.3685,0.3556,0.3395,0.3461,0.3237,0.3165,0.3622,0.3512,0.3404,0.3404,0.3404,0.3404,0.3404,0.3404,0.308,0.3064,0.3057,0.2992,0.2989,0.2917,0.2908,0.2895,0.2943,0.2947,0.2968,0.3059,0.3334,0.3509,0.3444,0.3343,0.3076,0.2941,0.2907,0.3285,0.3314,0.3342,0.3227,0.3062,0.3061,0.2331,0.2326,0.2322]},{"header":{"parameterUnit":"m.s-1","parameterCategory":2,"la1":30.2991,"la2":30.254,"lo1":-89.0895,"lo2":-89.0444,"dy":0.0017,"dx":0.0017,"nx":28,"ny":28,"refTime":"2025-01-16T09:00:00:Z","depth":"0","parameterNumber":3,"parameterNumberName":"V-component_of_CURRENTS"},"data":[0,0,0,0,0,0,0,0,0,0,0,0,0,0,0,0,0,0,0,0,0,0,0,0,0,0,0,0,0,0,0,0,0,0,0,0,0,0,0,0,0,0,0,0,0,0,0,0,0,0,0,0,0,0,0,0,0,0,-0.0828,-0.083,0,-0.1054,-0.1056,-0.1059,-0.1185,-0.1186,-0.1186,-0.1187,-0.1257,-0.1259,-0.126,0,0,0,0,0,0,0,0,0,0,0,0,0,-0.0659,-0.0661,-0.0827,-0.083,-0.0833,-0.1053,-0.1056,-0.1059,-0.1185,-0.1186,-0.1186,-0.1187,-0.1257,-0.1259,-0.126,0,0,0,0,0,0,0,0,0,0,0,0,0,-0.0792,-0.0661,-0.0827,-0.0923,-0.0934,-0.1053,-0.1056,-0.106,-0.1185,-0.1186,-0.1186,-0.1187,-0.1256,-0.1259,-0.1261,-0.126,0,0,-0.1267,-0.1268,0,0,0,0,0,0,0,0,-0.0784,-0.0798,-0.0906,-0.0917,-0.0929,-0.1093,-0.1023,-0.1119,-0.1185,-0.1089,-0.1187,-0.1187,-0.1188,-0.1196,-0.1238,-0.1263,-0.1266,-0.1267,-0.1269,-0.127,-0.127,0,0,0,0,0,0,0,-0.0775,-0.079,-0.0916,-0.0909,-0.0923,-0.1008,-0.1026,-0.1044,-0.1128,-0.1097,-0.1107,-0.1134,-0.1193,-0.1236,-0.124,-0.1267,-0.1267,-0.1269,-0.1271,-0.1271,-0.1316,-0.1315,0,0,0,0,0,0,-0.074,-0.078,-0.0909,-0.0923,-0.0858,-0.101,-0.1031,-0.1039,-0.1132,-0.1148,-0.1133,-0.1139,-0.1231,-0.1237,-0.1242,-0.1229,-0.127,-0.1272,-0.1273,-0.1316,-0.1316,-0.1315,0,0,0,0,0,0,-0.0735,-0.0748,-0.09,-0.0859,-0.0884,-0.1011,-0.102,-0.1043,-0.1078,-0.116,-0.1174,-0.1144,-0.1232,-0.1239,-0.1256,-0.1233,-0.1273,-0.1275,-0.1316,-0.1316,-0.1316,-0.1212,0,0,0,0,0,0,-0.0729,-0.0745,-0.0739,-0.0855,-0.0885,-0.0943,-0.1021,-0.1047,-0.1094,-0.1104,-0.1174,-0.1183,-0.1233,-0.1252,-0.1258,-0.1237,-0.1276,-0.1316,-0.1316,-0.1316,-0.1216,-0.1209,-0.1202,0,0,0,0,0,-0.0722,-0.0712,-0.0737,-0.0754,-0.0872,-0.0942,-0.0963,-0.1058,-0.1093,-0.1094,-0.1154,-0.118,-0.1255,-0.1253,-0.126,-0.1239,-0.1316,-0.1316,-0.1316,-0.1219,-0.121,-0.1203,0,0,0,0,0,0,-0.0642,-0.0728,-0.0757,-0.0775,-0.0838,-0.0963,-0.0983,-0.104,-0.1094,-0.1098,-0.1172,-0.1185,-0.1198,-0.123,-0.1227,-0.1255,-0.1291,-0.1292,-0.1216,-0.1208,-0.1201,-0.1154,-0.1278,0,0,0,0,0,-0.0617,-0.0624,-0.072,-0.0728,-0.0754,-0.086,-0.0901,-0.0957,-0.1026,-0.1053,-0.1104,-0.1158,-0.1204,-0.1213,-0.1258,-0.1255,-0.1262,-0.125,-0.1243,-0.1237,-0.1206,-0.1232,-0.1223,-0.1315,-0.1315,-0.1315,0,0,-0.0589,-0.0636,-0.0641,-0.071,-0.077,-0.079,-0.0885,-0.0929,-0.0941,-0.1044,-0.1061,-0.1131,-0.1202,-0.1221,-0.1227,-0.1239,-0.1209,-0.1237,-0.1231,-0.1202,-0.123,-0.1221,-0.1213,-0.1314,-0.1314,-0.1314,0,0,-0.053,-0.0572,-0.0556,-0.0597,-0.0669,-0.0732,-0.0731,-0.0832,-0.0869,-0.0899,-0.0987,-0.1033,-0.1093,-0.1147,-0.1181,-0.1154,-0.118,-0.1177,-0.1091,-0.1117,-0.1109,-0.1102,-0.1063,-0.1053,-0.1165,-0.1165,-0.1165,0,-0.0485,-0.0487,-0.0562,-0.0559,-0.0584,-0.069,-0.0677,-0.073,-0.082,-0.0831,-0.0879,-0.0995,-0.1055,-0.1086,-0.1096,-0.1133,-0.1137,-0.1114,-0.1104,-0.1098,-0.1093,-0.1055,-0.1045,-0.116,-0.116,-0.1161,-0.1161,0,-0.0415,-0.0421,-0.0416,-0.0439,-0.0469,-0.0477,-0.0555,-0.0573,-0.0632,-0.0692,-0.0736,-0.0845,-0.0905,-0.095,-0.1017,-0.1017,-0.1026,-0.1098,-0.1115,-0.1076,-0.104,-0.1032,-0.1153,-0.1154,-0.1156,-0.1157,0,0,-0.0292,-0.0352,-0.0344,-0.0341,-0.0405,-0.0419,-0.042,-0.0455,-0.044,-0.0539,-0.0531,-0.0655,-0.0722,-0.0766,-0.0866,-0.0902,-0.0873,-0.0975,-0.0979,-0.0914,-0.0879,-0.0832,-0.0819,-0.0953,-0.0952,-0.0951,-0.0854,0,-0.0208,-0.0179,-0.0229,-0.0192,-0.019,-0.0265,-0.0254,-0.0294,-0.0345,-0.0358,-0.0479,-0.0521,-0.0651,-0.0685,-0.0739,-0.085,-0.0854,-0.0889,-0.0944,-0.0943,-0.0891,-0.081,-0.079,-0.0699,-0.0847,-0.0845,-0.0844,0,-0.0113,-0.0113,-0.0064,-0.0079,-0.0078,-0.0061,-0.0053,-0.0057,-0.0106,-0.0148,-0.0215,-0.0317,-0.0387,-0.0513,-0.0627,-0.0647,-0.0734,-0.0821,-0.0821,-0.0803,-0.0882,-0.0772,-0.068,-0.0861,-0.0833,-0.0834,-0.0835,0,0.0002,0.0007,0.0051,0.0047,0.002,0.0051,0.0047,0.0018,0.004,-0.001,-0.0003,-0.0122,-0.0159,-0.0307,-0.0482,-0.0555,-0.0587,-0.0711,-0.0733,-0.0728,-0.0731,-0.0728,-0.0801,-0.0758,-0.0759,-0.0759,-0.0759,0,0.01,0.0134,0.0114,0.0138,0.0215,0.0164,0.0247,0.0221,0.0223,0.0276,0.0119,0.0144,-0.0117,-0.0185,-0.0375,-0.0485,-0.0491,-0.0668,-0.0696,-0.0691,-0.0686,-0.0863,-0.0991,-0.0755,-0.0756,-0.0757,-0.0757,0,0.0199,0.0184,0.0234,0.0245,0.0264,0.0321,0.037,0.0426,0.0406,0.0477,0.0469,0.0375,0.0293,0.0072,-0.0126,-0.0305,-0.0536,-0.0492,-0.0428,-0.0451,-0.0672,-0.0794,-0.0857,-0.0929,-0.0495,-0.0494,-0.0492,0,0.0244,0.028,0.0328,0.038,0.039,0.0464,0.0521,0.0517,0.0587,0.063,0.0689,0.0638,0.0639,0.041,0.008,-0.0164,-0.0405,-0.0323,-0.0478,-0.0626,-0.0785,-0.0885,-0.0951,-0.0426,-0.0424,-0.0422,-0.0421,0,0.0333,0.0353,0.0398,0.0505,0.0579,0.0663,0.0751,0.0838,0.0862,0.095,0.108,0.1098,0.0868,0.0641,0.0283,0.0065,-0.0444,-0.0296,-0.0494,-0.0743,-0.0813,-0.0915,-0.0511,-0.0407,-0.0408,-0.0409,-0.041,-0.0411,0.0411,0.0462,0.0536,0.0642,0.0733,0.0867,0.0965,0.1087,0.1253,0.1407,0.1399,0.1479,0.1082,0.0606,0.0298,-0.0269,-0.0323,-0.0483,-0.0611,-0.0689,-0.079,-0.0303,-0.0222,-0.0222,-0.0223,-0.0223,-0.0223,0,0.051,0.057,0.0669,0.0799,0.0921,0.0945,0.1125,0.1246,0.1482,0.1641,0.1776,0.165,0.1182,0.0639,-0.0119,-0.0527,-0.0727,-0.076,-0.0943,-0.0994,-0.0589,-0.0621,-0.0569,-0.0569,-0.0568,-0.0568,-0.0568,-0.0568,0.0571,0.0681,0.0725,0.0946,0.1042,0.1214,0.1327,0.1527,0.1688,0.1937,0.2013,0.2021,0.1602,0.0241,-0.0671,-0.0881,-0.1221,-0.1264,-0.1419,-0.1212,-0.1198,-0.1185,-0.1245,-0.1325,-0.1326,-0.1779,-0.1784,-0.1787]}],[{"header":{"parameterUnit":"m.s-1","parameterCategory":2,"la1":30.2991,"la2":30.254,"lo1":-89.0895,"lo2":-89.0444,"dy":0.0017,"dx":0.0017,"nx":28,"ny":28,"refTime":"2025-01-16T09:00:00:Z","depth":"2","parameterNumber":2,"parameterNumberName":"U-component_of_CURRENTS"},"data":[0,0,0,0,0,0,0,0,0,0,0,0,0,0,0,0,0,0,0,0,0,0,0,0,0,0,0,0,0,0,0,0,0,0,0,0,0,0,0,0,0,0,0,0,0,0,0,0,0,0,0,0,0,0,0,0,0,0,0.254,0.2541,0,0.2618,0.2619,0.2621,0.2644,0.2643,0.2642,0.2641,0.2641,0.2642,0.2642,0,0,0,0,0,0,0,0,0,0,0,0,0,0.2514,0.2514,0.254,0.2541,0.2541,0.2617,0.2619,0.2621,0.2644,0.2643,0.2641,0.264,0.264,0.2641,0.2643,0,0,0,0,0,0,0,0,0,0,0,0,0,0.2558,0.2514,0.254,0.2556,0.2558,0.2617,0.2619,0.2621,0.2644,0.2643,0.2641,0.264,0.264,0.2641,0.2643,0.2684,0,0,0.2647,0.2648,0,0,0,0,0,0,0,0,0.2556,0.256,0.2554,0.2555,0.2557,0.2613,0.2609,0.2636,0.2645,0.2619,0.2641,0.2639,0.262,0.2624,0.2653,0.2684,0.2684,0.2647,0.2648,0.2649,0.2649,0,0,0,0,0,0,0,0.2552,0.2558,0.2579,0.2554,0.2556,0.2594,0.2598,0.2616,0.2632,0.2621,0.2621,0.2619,0.2622,0.2652,0.2653,0.2684,0.2647,0.2649,0.265,0.265,0.2752,0.2754,0,0,0,0,0,0,0.2525,0.2554,0.2576,0.258,0.2544,0.2594,0.26,0.2603,0.2634,0.2635,0.262,0.2619,0.265,0.2651,0.2653,0.2698,0.2649,0.265,0.2651,0.275,0.2752,0.2754,0,0,0,0,0,0,0.2524,0.2526,0.2573,0.2563,0.257,0.2595,0.2599,0.2605,0.2645,0.2632,0.2634,0.2653,0.2649,0.2651,0.267,0.2698,0.2651,0.2652,0.2748,0.2751,0.2753,0.2792,0,0,0,0,0,0,0.2523,0.2526,0.2542,0.2561,0.2569,0.2598,0.26,0.2607,0.2641,0.2642,0.2661,0.2659,0.2648,0.2668,0.2672,0.2699,0.2654,0.2746,0.2749,0.2753,0.2788,0.2796,0.2802,0,0,0,0,0,0.2522,0.2528,0.2543,0.2546,0.2583,0.2597,0.2607,0.2624,0.2644,0.2658,0.2674,0.2659,0.2692,0.2671,0.2674,0.2703,0.2744,0.2748,0.2752,0.2785,0.2794,0.2802,0,0,0,0,0,0,0.2509,0.2532,0.2547,0.2557,0.2575,0.2598,0.2615,0.2641,0.2674,0.2674,0.268,0.2679,0.2726,0.2707,0.2683,0.2745,0.2718,0.2723,0.2742,0.275,0.2757,0.2771,0.2655,0,0,0,0,0,0.2519,0.2539,0.2555,0.2564,0.2574,0.2609,0.2627,0.2636,0.2655,0.2671,0.269,0.271,0.2749,0.2739,0.2774,0.2787,0.2795,0.2811,0.2818,0.2823,0.284,0.2874,0.2885,0.2768,0.2768,0.2768,0,0,0.2514,0.253,0.2541,0.2566,0.2587,0.2613,0.2617,0.2634,0.2665,0.2664,0.2719,0.2753,0.277,0.2804,0.2818,0.2779,0.2861,0.2828,0.2833,0.2846,0.2879,0.2891,0.2901,0.2771,0.277,0.277,0,0,0.2506,0.2532,0.2547,0.2573,0.2597,0.2618,0.2627,0.2662,0.2685,0.2734,0.2761,0.2796,0.2842,0.2852,0.2865,0.2927,0.2925,0.2947,0.2955,0.2988,0.2997,0.3006,0.3026,0.3036,0.2913,0.2913,0.2913,0,0.2503,0.2527,0.2552,0.2577,0.2599,0.2624,0.2646,0.2682,0.2723,0.275,0.2747,0.2865,0.2866,0.2921,0.2942,0.2941,0.2964,0.2917,0.2995,0.3004,0.3012,0.303,0.3041,0.2915,0.2915,0.2915,0.2914,0,0.2511,0.2542,0.2549,0.2601,0.2628,0.2644,0.2682,0.2726,0.2765,0.28,0.2882,0.2902,0.2956,0.2973,0.2975,0.3043,0.3043,0.3028,0.297,0.3026,0.3042,0.3052,0.2919,0.2918,0.2917,0.2916,0,0,0.2471,0.2542,0.2549,0.2584,0.2642,0.266,0.2718,0.2772,0.2822,0.2873,0.294,0.3006,0.3025,0.3044,0.3055,0.3073,0.314,0.3074,0.3074,0.3085,0.3223,0.3182,0.3189,0.3146,0.3148,0.315,0.3208,0,0.2471,0.2511,0.2557,0.2615,0.2637,0.27,0.2751,0.2808,0.2864,0.2936,0.2974,0.3048,0.3046,0.3078,0.3102,0.315,0.3172,0.3127,0.3175,0.3176,0.3126,0.3201,0.2954,0.2982,0.3218,0.322,0.3221,0,0.2468,0.2496,0.2537,0.2623,0.2641,0.2692,0.2785,0.2835,0.2933,0.2979,0.305,0.3096,0.3154,0.3142,0.3224,0.3202,0.3226,0.3248,0.3249,0.3209,0.3156,0.2967,0.2992,0.3238,0.3236,0.3235,0.3234,0,0.2417,0.2491,0.2522,0.2554,0.2647,0.2697,0.2756,0.285,0.29,0.3016,0.3068,0.3145,0.3194,0.3241,0.329,0.3267,0.3384,0.3336,0.3323,0.3319,0.3116,0.3091,0.3408,0.3408,0.3407,0.3407,0.3407,0,0.2405,0.2435,0.251,0.2537,0.2586,0.267,0.2745,0.2821,0.2927,0.299,0.3083,0.3147,0.3231,0.3302,0.3324,0.3366,0.3403,0.3356,0.3344,0.3123,0.3099,0.3323,0.3312,0.3409,0.3409,0.3409,0.3408,0,0.2357,0.2402,0.2448,0.254,0.2566,0.261,0.273,0.2786,0.2897,0.2987,0.3029,0.3169,0.3263,0.3337,0.3425,0.3404,0.3444,0.3452,0.3189,0.3146,0.3343,0.3334,0.3421,0.3421,0.342,0.342,0.3419,0,0.2334,0.2352,0.2428,0.2453,0.2505,0.2577,0.2619,0.2748,0.2812,0.2989,0.3024,0.3171,0.3252,0.3373,0.3384,0.3421,0.3468,0.3198,0.3103,0.3371,0.3351,0.3342,0.3334,0.284,0.2835,0.2831,0.2827,0,0.2301,0.2333,0.2366,0.2399,0.2453,0.2494,0.2578,0.2615,0.2765,0.2852,0.2973,0.3063,0.3212,0.3154,0.3232,0.321,0.3166,0.3115,0.3469,0.2887,0.2831,0.2808,0.2818,0.279,0.2794,0.2797,0.2799,0.28,0.2272,0.2278,0.2318,0.2343,0.2384,0.2395,0.2395,0.2492,0.2558,0.2656,0.2822,0.2876,0.2951,0.2945,0.2881,0.2828,0.3034,0.2877,0.2886,0.29,0.2835,0.2783,0.2719,0.2722,0.2725,0.2728,0.273,0,0.2215,0.2231,0.2259,0.2267,0.225,0.2316,0.2344,0.2317,0.2341,0.2481,0.2572,0.2436,0.2442,0.2503,0.2383,0.2405,0.2344,0.229,0.2173,0.2215,0.225,0.2146,0.1851,0.1847,0.1844,0.1842,0,0,0.2195,0.2181,0.218,0.2117,0.2126,0.2065,0.2051,0.2037,0.2085,0.2093,0.2121,0.2342,0.2452,0.2115,0.2089,0.1941,0.2051,0.1869,0.2585,0.249,0.2521,0.2615,0.2507,0,0,0,0,0]},{"header":{"parameterUnit":"m.s-1","parameterCategory":2,"la1":30.2991,"la2":30.254,"lo1":-89.0895,"lo2":-89.0444,"dy":0.0017,"dx":0.0017,"nx":28,"ny":28,"refTime":"2025-01-16T09:00:00:Z","depth":"2","parameterNumber":3,"parameterNumberName":"V-component_of_CURRENTS"},"data":[0,0,0,0,0,0,0,0,0,0,0,0,0,0,0,0,0,0,0,0,0,0,0,0,0,0,0,0,0,0,0,0,0,0,0,0,0,0,0,0,0,0,0,0,0,0,0,0,0,0,0,0,0,0,0,0,0,0,0.0358,0.0358,0,0.0323,0.0322,0.0321,0.0305,0.0306,0.0307,0.0308,0.0168,0.0164,0.016,0,0,0,0,0,0,0,0,0,0,0,0,0,0.032,0.032,0.0358,0.0358,0.0359,0.0324,0.0322,0.0321,0.0305,0.0306,0.0307,0.0308,0.017,0.0165,0.0159,0,0,0,0,0,0,0,0,0,0,0,0,0,0.0308,0.032,0.0358,0.0353,0.0353,0.0324,0.0322,0.0321,0.0305,0.0306,0.0308,0.0309,0.0172,0.0165,0.0158,0.0092,0,0,0.0138,0.0135,0,0,0,0,0,0,0,0,0.0309,0.0308,0.0353,0.0353,0.0353,0.0328,0.0258,0.0242,0.0305,0.0314,0.0308,0.0309,0.0216,0.0206,0.0186,0.0086,0.008,0.0137,0.0133,0.013,0.0128,0,0,0,0,0,0,0,0.031,0.0309,0.0336,0.0354,0.0354,0.0322,0.0321,0.0254,0.025,0.0313,0.0314,0.0324,0.0215,0.0193,0.0183,0.0078,0.0137,0.0131,0.0127,0.0125,-0.0035,-0.0035,0,0,0,0,0,0,0.0335,0.031,0.0337,0.0335,0.0343,0.0323,0.0322,0.0328,0.0253,0.0247,0.0323,0.0323,0.0204,0.0191,0.0178,0.0138,0.013,0.0124,0.012,-0.0035,-0.0035,-0.0035,0,0,0,0,0,0,0.0334,0.0337,0.0338,0.0329,0.0328,0.0324,0.0329,0.0326,0.0297,0.0263,0.0253,0.0297,0.0204,0.0187,0.0131,0.0131,0.0121,0.0115,-0.0035,-0.0035,-0.0035,0.0031,0,0,0,0,0,0,0.0333,0.0337,0.0338,0.0331,0.033,0.0328,0.0329,0.0325,0.0306,0.0305,0.0237,0.0226,0.0204,0.0141,0.0124,0.0122,0.011,-0.0034,-0.0035,-0.0035,0.0029,0.0033,0.0037,0,0,0,0,0,0.0331,0.0348,0.0338,0.0342,0.0336,0.0328,0.0323,0.0318,0.0303,0.0292,0.0255,0.0228,0.0127,0.0135,0.0115,0.0111,-0.0034,-0.0035,-0.0035,0.0028,0.0032,0.0036,0,0,0,0,0,0,0.0346,0.0348,0.0338,0.0357,0.0342,0.0329,0.0331,0.0305,0.0262,0.0267,0.0212,0.0199,0.0141,0.0114,0.0124,0.0065,0.0045,0.0041,0.01,0.0104,0.0107,0.0133,0.0104,0,0,0,0,0,0.0346,0.0349,0.0344,0.0355,0.0355,0.0328,0.032,0.0315,0.0287,0.027,0.022,0.0175,0.0121,0.0107,0.0048,0.0013,-0.0015,0.0001,0.0005,0.0008,0.0016,-0.0016,-0.0014,-0.0037,-0.0037,-0.0037,0,0,0.0352,0.0358,0.0357,0.0356,0.0347,0.035,0.0325,0.0326,0.0323,0.0258,0.0227,0.0162,0.0106,0.0072,0.0048,0.0057,-0.0003,0.0008,0.0011,0.0017,-0.0016,-0.0014,-0.0012,-0.0037,-0.0037,-0.0037,0,0,0.0378,0.0374,0.0385,0.0375,0.0375,0.0366,0.0361,0.0337,0.0325,0.0285,0.0237,0.019,0.0104,0.0086,0.006,0.0045,-0.0005,0.0014,0.0077,0.0047,0.0049,0.005,0.001,0.0008,0.0044,0.0045,0.0045,0,0.0388,0.0403,0.0385,0.0396,0.0402,0.0372,0.0386,0.0366,0.0322,0.0313,0.0291,0.0171,0.0122,0.0089,0.0094,0.0056,0.0019,0.0069,0.0054,0.0054,0.0055,0.0013,0.001,0.0048,0.0047,0.0047,0.0047,0,0.0415,0.0427,0.0439,0.0442,0.0438,0.045,0.0436,0.0418,0.0392,0.0368,0.031,0.0242,0.0187,0.0156,0.012,0.0095,0.0059,0.0041,0.0049,0.0062,0.0016,0.0011,0.0052,0.0051,0.005,0.0049,0,0,0.0448,0.0457,0.046,0.0476,0.0468,0.0477,0.0477,0.0473,0.048,0.0418,0.041,0.0321,0.0277,0.0245,0.0186,0.0165,0.0133,0.0113,0.011,0.0086,0.0047,0.0028,0.002,0.0106,0.0106,0.0106,0.0013,0,0.0478,0.0521,0.0507,0.0542,0.0569,0.0543,0.0548,0.0537,0.0515,0.0496,0.0431,0.0388,0.0316,0.029,0.0254,0.0152,0.0123,0.0159,0.0028,0.0025,0.0016,0.0016,0.0038,-0.0043,0.0007,0.0007,0.0006,0,0.0509,0.0542,0.0586,0.0616,0.0624,0.0629,0.0648,0.0651,0.062,0.06,0.0551,0.0483,0.0424,0.0367,0.0229,0.0249,0.0154,0.0081,0.0076,0.0034,-0.0003,-0.0048,-0.0054,-0.0003,-0.0002,-0.0001,-0.0001,0,0.056,0.0597,0.0642,0.0647,0.067,0.0682,0.0692,0.0681,0.0705,0.0668,0.0669,0.0571,0.0534,0.0404,0.0247,0.0234,0.0093,0.0065,-0.0044,-0.0047,-0.0064,-0.0067,-0.0028,-0.0028,-0.0027,-0.0027,-0.0027,0,0.0606,0.0641,0.067,0.0694,0.0753,0.0745,0.0796,0.0786,0.0793,0.0828,0.0729,0.0727,0.054,0.0433,0.0277,0.0104,0.0119,-0.0037,-0.0069,-0.0042,-0.0042,-0.0034,-0.0034,-0.0031,-0.003,-0.0029,-0.0028,0,0.0651,0.0665,0.0722,0.076,0.0778,0.082,0.0874,0.0917,0.0905,0.0946,0.0939,0.0847,0.0709,0.0512,0.0306,0.0161,-0.001,-0.0077,-0.0039,-0.0064,-0.0143,-0.0138,-0.0206,-0.0208,-0.0209,-0.021,-0.0211,0,0.0677,0.0714,0.0777,0.0819,0.0836,0.0901,0.0954,0.0972,0.1025,0.1024,0.1053,0.0935,0.0869,0.0557,0.0282,0.0011,-0.0021,-0.0149,-0.0164,-0.0135,-0.0159,-0.0153,-0.0147,-0.017,-0.017,-0.0171,-0.0171,0,0.0733,0.0747,0.0798,0.0891,0.0952,0.1033,0.1106,0.1167,0.1195,0.1222,0.1238,0.1184,0.0892,0.0627,0.0254,0.0067,-0.0105,-0.0165,-0.0142,-0.0121,-0.0107,-0.0128,-0.0122,-0.0174,-0.0174,-0.0174,-0.0173,-0.0173,0.077,0.0812,0.0879,0.0966,0.1045,0.1148,0.1225,0.1305,0.1393,0.1436,0.1383,0.1306,0.1003,0.0533,0.021,-0.0132,-0.0117,-0.0238,-0.0234,-0.0231,-0.0203,-0.0191,-0.027,-0.027,-0.027,-0.027,-0.027,0,0.0818,0.0867,0.0952,0.1052,0.1146,0.1184,0.1319,0.1393,0.1499,0.1531,0.1535,0.1243,0.0936,0.0584,0.0084,-0.0212,-0.0237,-0.0313,-0.027,-0.0265,-0.0261,-0.0232,-0.0309,-0.031,-0.031,-0.0311,0,0,0.0841,0.0924,0.0967,0.1119,0.1197,0.1332,0.1415,0.1515,0.1572,0.1601,0.1557,0.1471,0.1044,0.0682,0.0275,-0.0013,-0.0074,-0.008,-0.0018,0.0086,0.0094,-0.0188,-0.0135,0,0,0,0,0]}],[{"header":{"parameterUnit":"m.s-1","parameterCategory":2,"la1":30.2991,"la2":30.254,"lo1":-89.0895,"lo2":-89.0444,"dy":0.0017,"dx":0.0017,"nx":28,"ny":28,"refTime":"2025-01-16T09:00:00:Z","depth":"4","parameterNumber":2,"parameterNumberName":"U-component_of_CURRENTS"},"data":[0,0,0,0,0,0,0,0,0,0,0,0,0,0,0,0,0,0,0,0,0,0,0,0,0,0,0,0,0,0,0,0,0,0,0,0,0,0,0,0,0,0,0,0,0,0,0,0,0,0,0,0,0,0,0,0,0,0,0.1372,0.1373,0,0.1439,0.144,0.1441,0.1497,0.1498,0.1498,0.1499,0.1604,0.1606,0.1608,0,0,0,0,0,0,0,0,0,0,0,0,0,0.1296,0.1297,0.1372,0.1373,0.1374,0.1439,0.144,0.1441,0.1497,0.1498,0.1499,0.1499,0.1604,0.1606,0.1608,0,0,0,0,0,0,0,0,0,0,0,0,0,0.1341,0.1297,0.1372,0.1411,0.1416,0.1439,0.144,0.1441,0.1497,0.1498,0.1499,0.15,0.1603,0.1606,0.1609,0.1605,0,0,0.1618,0.162,0,0,0,0,0,0,0,0,0.1338,0.1343,0.1405,0.1409,0.1414,0.1463,0.1452,0.1498,0.1496,0.1464,0.1499,0.1501,0.1561,0.1567,0.1574,0.161,0.1614,0.1619,0.162,0.1622,0.1623,0,0,0,0,0,0,0,0.1335,0.1341,0.1397,0.1406,0.1411,0.1427,0.1434,0.1461,0.1504,0.1467,0.1472,0.1481,0.1563,0.1571,0.1577,0.1616,0.1619,0.1621,0.1623,0.1624,0.1747,0.1749,0,0,0,0,0,0,0.1329,0.1338,0.1395,0.1399,0.138,0.1427,0.1436,0.1444,0.1503,0.1514,0.148,0.1484,0.1565,0.1574,0.1581,0.1678,0.1622,0.1625,0.1627,0.1746,0.1748,0.1749,0,0,0,0,0,0,0.1327,0.1333,0.1392,0.1372,0.1381,0.1428,0.1437,0.1445,0.1487,0.1514,0.1525,0.1518,0.1566,0.1577,0.1637,0.1679,0.1626,0.1629,0.1744,0.1746,0.1748,0.181,0,0,0,0,0,0,0.1324,0.1332,0.1352,0.1371,0.1382,0.1429,0.1436,0.1446,0.149,0.1496,0.1549,0.1558,0.1568,0.1632,0.164,0.1683,0.1631,0.1742,0.1745,0.1748,0.1806,0.1814,0.182,0,0,0,0,0,0.1321,0.134,0.1353,0.1361,0.1402,0.143,0.1438,0.1473,0.1491,0.1514,0.1553,0.1558,0.1654,0.1636,0.1644,0.1689,0.1741,0.1744,0.1747,0.1803,0.1812,0.182,0,0,0,0,0,0,0.1314,0.1348,0.1363,0.139,0.142,0.1441,0.1472,0.149,0.1537,0.1556,0.1577,0.1589,0.1657,0.166,0.164,0.1731,0.1698,0.1703,0.1737,0.1746,0.1753,0.1757,0.1634,0,0,0,0,0,0.132,0.135,0.1376,0.1403,0.1421,0.1451,0.1474,0.1497,0.1532,0.1556,0.1595,0.1634,0.1669,0.1699,0.1729,0.1779,0.179,0.1812,0.1819,0.1825,0.1834,0.1879,0.1891,0.1759,0.1759,0.1759,0,0,0.1326,0.1349,0.1368,0.1405,0.1433,0.1463,0.1469,0.1513,0.155,0.1559,0.1637,0.1665,0.1688,0.1747,0.1777,0.1762,0.1871,0.1829,0.1835,0.184,0.1884,0.1896,0.1908,0.1762,0.1761,0.1761,0,0,0.1342,0.1374,0.1402,0.143,0.1477,0.1495,0.1515,0.156,0.1597,0.1657,0.1678,0.1733,0.1788,0.1817,0.1834,0.1897,0.1906,0.191,0.1956,0.2,0.2011,0.2021,0.2062,0.2075,0.1915,0.1915,0.1915,0,0.135,0.1384,0.1415,0.1446,0.1479,0.1513,0.1548,0.1584,0.1648,0.1688,0.1694,0.1797,0.182,0.1889,0.1913,0.1916,0.194,0.1922,0.201,0.202,0.2029,0.2068,0.2082,0.1919,0.1918,0.1918,0.1918,0,0.1378,0.1416,0.1437,0.149,0.1528,0.1566,0.1613,0.1669,0.1717,0.1753,0.1846,0.1879,0.1942,0.1957,0.1956,0.2038,0.2035,0.2013,0.1988,0.2046,0.2084,0.2097,0.1923,0.1922,0.1921,0.192,0,0,0.1367,0.1442,0.1454,0.1486,0.1558,0.1586,0.1661,0.1732,0.1793,0.1859,0.1938,0.2001,0.2032,0.2052,0.2069,0.2105,0.2193,0.2094,0.2095,0.2135,0.2299,0.2155,0.2155,0.2191,0.2193,0.2195,0.2303,0,0.1384,0.1442,0.1484,0.155,0.1583,0.1647,0.1712,0.1786,0.1856,0.1942,0.1995,0.2075,0.2064,0.211,0.2147,0.2186,0.2229,0.2166,0.2236,0.2238,0.2103,0.2165,0.2203,0.2313,0.2316,0.2318,0.2319,0,0.1394,0.1436,0.1499,0.1583,0.1607,0.1658,0.1776,0.1839,0.1958,0.2019,0.2108,0.2153,0.2243,0.2211,0.2314,0.2279,0.23,0.2315,0.2319,0.2169,0.2117,0.224,0.2343,0.2341,0.2339,0.2338,0.2336,0,0.1359,0.1444,0.1497,0.1527,0.1627,0.1685,0.1752,0.1871,0.1945,0.2083,0.2153,0.2251,0.2322,0.2365,0.2407,0.2377,0.25,0.2457,0.2349,0.234,0.2411,0.2399,0.2526,0.2526,0.2525,0.2525,0.2525,0,0.1343,0.1387,0.149,0.1517,0.1596,0.1679,0.1784,0.1867,0.2003,0.2088,0.2195,0.2268,0.2366,0.2441,0.2453,0.2446,0.2545,0.2371,0.2359,0.2435,0.2424,0.2421,0.2407,0.2529,0.2528,0.2527,0.2527,0,0.1286,0.1353,0.1417,0.1535,0.1578,0.1638,0.1791,0.1861,0.2002,0.212,0.2173,0.2321,0.2412,0.2487,0.257,0.2496,0.2508,0.248,0.2581,0.2571,0.2308,0.2297,0.2364,0.236,0.2356,0.2353,0.2351,0,0.1256,0.1285,0.1414,0.1458,0.1516,0.1622,0.1692,0.1846,0.192,0.2126,0.2164,0.2318,0.2395,0.2406,0.2483,0.2511,0.2473,0.2465,0.2355,0.2311,0.2294,0.2288,0.2281,0.2345,0.2344,0.2343,0.2342,0,0.1197,0.1258,0.1309,0.1401,0.1479,0.1558,0.167,0.1713,0.1887,0.2033,0.2114,0.217,0.2267,0.2319,0.2366,0.2372,0.2457,0.2427,0.2433,0.2329,0.2289,0.2274,0.2272,0.233,0.2332,0.2333,0.2334,0,0.1157,0.1175,0.1255,0.1323,0.1415,0.1463,0.1535,0.1622,0.1714,0.1931,0.1954,0.2109,0.2248,0.2249,0.2289,0.2291,0.224,0.2149,0.2168,0.2183,0.2069,0.1987,0.1938,0,0,0,0,0,0.1108,0.1116,0.1172,0.1234,0.1322,0.1376,0.1505,0.1581,0.1745,0.1756,0.1852,0.1932,0.1998,0.2078,0.2041,0.2199,0.2244,0.2145,0.2146,0.2262,0.2276,0.2156,0,0,0,0,0,0,0.1071,0.1115,0.1133,0.1149,0.1176,0.1257,0.1332,0.1441,0.1457,0.163,0.168,0.181,0.1905,0.2001,0.2003,0.2026,0.1985,0.2244,0.2239,0.2254,0.2267,0.2278,0.216,0,0,0,0,0]},{"header":{"parameterUnit":"m.s-1","parameterCategory":2,"la1":30.2991,"la2":30.254,"lo1":-89.0895,"lo2":-89.0444,"dy":0.0017,"dx":0.0017,"nx":28,"ny":28,"refTime":"2025-01-16T09:00:00:Z","depth":"4","parameterNumber":3,"parameterNumberName":"V-component_of_CURRENTS"},"data":[0,0,0,0,0,0,0,0,0,0,0,0,0,0,0,0,0,0,0,0,0,0,0,0,0,0,0,0,0,0,0,0,0,0,0,0,0,0,0,0,0,0,0,0,0,0,0,0,0,0,0,0,0,0,0,0,0,0,0.042,0.042,0,0.0414,0.0414,0.0414,0.042,0.0421,0.0421,0.0421,0.0362,0.036,0.0359,0,0,0,0,0,0,0,0,0,0,0,0,0,0.0404,0.0405,0.042,0.042,0.042,0.0414,0.0414,0.0414,0.042,0.0421,0.0421,0.0421,0.0363,0.0361,0.0358,0,0,0,0,0,0,0,0,0,0,0,0,0,0.0405,0.0405,0.042,0.0424,0.0424,0.0414,0.0414,0.0414,0.042,0.0421,0.0421,0.0422,0.0364,0.0361,0.0358,0.0331,0,0,0.0349,0.0348,0,0,0,0,0,0,0,0,0.0405,0.0406,0.0423,0.0423,0.0424,0.0419,0.0387,0.0384,0.042,0.042,0.0421,0.0422,0.0377,0.0373,0.037,0.0328,0.0325,0.0349,0.0347,0.0346,0.0345,0,0,0,0,0,0,0,0.0405,0.0406,0.0417,0.0423,0.0423,0.0414,0.0415,0.0386,0.0394,0.042,0.0421,0.0422,0.0376,0.0373,0.0368,0.0324,0.0349,0.0347,0.0345,0.0344,0.0293,0.0293,0,0,0,0,0,0,0.0409,0.0406,0.0417,0.0417,0.0416,0.0414,0.0415,0.0419,0.0396,0.0393,0.0421,0.0422,0.0377,0.0372,0.0366,0.0354,0.0346,0.0344,0.0342,0.0292,0.0293,0.0293,0,0,0,0,0,0,0.0409,0.041,0.0418,0.0412,0.0412,0.0414,0.0419,0.0419,0.0419,0.0397,0.0394,0.0422,0.0377,0.037,0.0351,0.0351,0.0342,0.034,0.0292,0.0292,0.0293,0.0315,0,0,0,0,0,0,0.0408,0.041,0.0417,0.0412,0.0413,0.0414,0.0418,0.0419,0.0419,0.042,0.0396,0.0391,0.0377,0.0356,0.0349,0.0347,0.0338,0.0292,0.0292,0.0293,0.0314,0.0316,0.0318,0,0,0,0,0,0.0408,0.0415,0.0417,0.0419,0.0421,0.0414,0.0413,0.0415,0.0418,0.0417,0.0407,0.0392,0.0355,0.0353,0.0345,0.0342,0.0291,0.0292,0.0293,0.0313,0.0315,0.0318,0,0,0,0,0,0,0.0413,0.0417,0.0419,0.0428,0.0422,0.0415,0.0419,0.0415,0.0406,0.0412,0.0389,0.0383,0.0369,0.0352,0.0351,0.0332,0.0323,0.0322,0.0341,0.0343,0.0345,0.0353,0.0335,0,0,0,0,0,0.0417,0.0424,0.042,0.0427,0.0427,0.0422,0.042,0.0421,0.0413,0.041,0.0393,0.0379,0.0364,0.0352,0.0337,0.0316,0.0287,0.0312,0.0315,0.0316,0.0319,0.0279,0.0278,0.0296,0.0296,0.0296,0,0,0.042,0.0424,0.0427,0.0429,0.0428,0.043,0.0422,0.0425,0.0429,0.0403,0.0402,0.0384,0.0362,0.035,0.0341,0.0334,0.0294,0.0317,0.0319,0.032,0.028,0.0278,0.0276,0.0296,0.0296,0.0296,0,0,0.0428,0.0435,0.0442,0.044,0.0442,0.044,0.044,0.0434,0.0436,0.0428,0.0416,0.0398,0.0373,0.0357,0.0346,0.0348,0.0309,0.0344,0.0355,0.0317,0.0315,0.0313,0.026,0.0254,0.0343,0.0343,0.0343,0,0.0433,0.0446,0.0441,0.0448,0.0455,0.0445,0.0455,0.0451,0.0439,0.0439,0.0435,0.04,0.0378,0.0358,0.0364,0.0351,0.0319,0.0346,0.0319,0.0316,0.0313,0.026,0.0252,0.0344,0.0344,0.0343,0.0343,0,0.0441,0.0458,0.0463,0.0473,0.0474,0.0483,0.0479,0.0479,0.0478,0.047,0.0455,0.0423,0.0403,0.0391,0.0377,0.0351,0.0329,0.0327,0.031,0.0313,0.0257,0.0248,0.0345,0.0345,0.0345,0.0344,0,0,0.0443,0.0467,0.0471,0.049,0.0494,0.05,0.0506,0.0509,0.0518,0.0494,0.0493,0.0458,0.0438,0.0424,0.0396,0.0359,0.0307,0.0337,0.0334,0.0282,0.0207,0.0193,0.0181,0.0297,0.0296,0.0296,0.0171,0,0.0457,0.0488,0.0491,0.0522,0.0542,0.054,0.0548,0.0547,0.0542,0.0535,0.0495,0.0484,0.0451,0.0442,0.0398,0.0337,0.0287,0.034,0.0216,0.0212,0.0196,0.0173,0.0292,0.0164,0.0162,0.016,0.0159,0,0.0465,0.0492,0.0529,0.0567,0.0575,0.0588,0.061,0.0616,0.0598,0.0593,0.0563,0.053,0.0473,0.0451,0.0327,0.0362,0.0287,0.0231,0.0225,0.02,0.0182,0.0164,0.0143,0.0144,0.0145,0.0147,0.0148,0,0.0479,0.0519,0.0558,0.057,0.0602,0.0621,0.0637,0.0635,0.0654,0.063,0.0633,0.0556,0.0526,0.0423,0.0307,0.0315,0.0165,0.0162,0.0069,0.0067,0.0108,0.0111,0.0068,0.0068,0.0068,0.0069,0.0069,0,0.0496,0.0529,0.0574,0.0596,0.0645,0.0654,0.0699,0.0698,0.0706,0.0726,0.0666,0.0652,0.052,0.0422,0.0308,0.0158,0.016,0.0061,0.0034,0.0118,0.0125,0.01,0.0105,0.0064,0.0065,0.0066,0.0067,0,0.0504,0.0532,0.0583,0.0634,0.0656,0.0691,0.0754,0.0784,0.0782,0.0803,0.0798,0.0718,0.0589,0.0441,0.0267,0.0168,0.0024,-0.003,0.0057,0.0038,-0.0054,-0.0046,-0.0152,-0.0154,-0.0155,-0.0156,-0.0157,0,0.0509,0.0537,0.0613,0.0652,0.0682,0.0744,0.0789,0.0819,0.0853,0.0841,0.0847,0.0739,0.0665,0.0401,0.0244,0.0006,-0.002,-0.0107,-0.0073,-0.0061,-0.0077,-0.0067,-0.0057,-0.0159,-0.016,-0.016,-0.016,0,0.0521,0.0549,0.0594,0.0678,0.074,0.0812,0.0876,0.0905,0.0933,0.0936,0.0883,0.075,0.0599,0.04,0.0213,0.0049,-0.0056,-0.0122,-0.012,-0.0088,-0.0071,-0.0083,-0.0072,-0.0165,-0.0164,-0.0164,-0.0163,0,0.0527,0.0559,0.0622,0.0694,0.0777,0.0849,0.0888,0.0924,0.0955,0.0941,0.092,0.0763,0.0675,0.0421,0.0251,0.0083,0.0044,-0.0011,-0.0016,-0.0013,0.0071,0.0116,0.0047,0,0,0,0,0,0.0529,0.0566,0.0634,0.0714,0.0799,0.0851,0.0931,0.0963,0.0992,0.0962,0.0944,0.0805,0.0553,0.0444,0.0274,0.0217,0.0007,0.001,-0.0059,-0.019,-0.0185,-0.0111,0,0,0,0,0,0,0.0529,0.059,0.0626,0.072,0.0779,0.0875,0.093,0.0953,0.0938,0.0938,0.081,0.0752,0.051,0.0649,0.0267,0.0216,0.0145,-0.0103,-0.0107,-0.0193,-0.0188,-0.0184,-0.0107,0,0,0,0,0]}]]